Hourly Data Report for August 26, 2000

SHERBROOKE A
QUEBEC

45°26'00.000" N
71°41'00.000" W
241.40 m
7028124
71610
YSC

Download Data

Hourly Data (August 2000)
Hourly Data Report for August 26, 2000
TIME
LST
Temp Definition
°C
Dew Point Definition
°C
Rel Hum Definition
%
Precip. Amount Definition
mm

Wind Dir Definition
10's deg

Wind Spd Definition
km/h
Visibility Definition
km
Stn Press Definition
kPa
Hmdx Definition


Wind Chill Definition


Weather Definition


00:00 13.8 12.1 89     0 15.0 98.62      
01:00 12.3 12.1 99   16 4 12.9 98.59      
02:00 11.4 11.1 98     0 1.6 98.59      
03:00 10.6 10.3 98   12 4 8.0 98.59      
04:00 10.2 9.9 98   8 4 9.7 98.59      
05:00 9.9 9.7 99   7 4 3.4 98.62      
06:00 12.1 11.9 99     0 9.7 98.62      
07:00 16.5 12.9 79     0 24.1 98.65     Clear
08:00 19.3 13.5 69   23 6 24.1 98.62     Clear
09:00 21.8 14.1 62   22 15 24.1 98.62 25   Clear
10:00 22.9 15.1 61   25 15 24.1 98.55 27   Mainly Clear
11:00 24.9 16.2 58   25 7 24.1 98.52 30   Mainly Clear
12:00 25.4 14.3 50   21 17 24.1 98.49 29   Mainly Clear
13:00 26.0 14.8 50   20 15 24.1 98.45 30   Mainly Clear
14:00 26.3 14.8 49   24 15 24.1 98.42 30   Mainly Clear
15:00 25.6 14.9 52   24 7 24.1 98.39 30   Mostly Cloudy
16:00 24.3 14.7 55   23 7 24.1 98.36 28   Mostly Cloudy
17:00 25.1 15.0 53   25 11 15.0 98.32 29    
18:00 21.8 16.8 73     0 15.0 98.32 27    
19:00 17.6 15.0 85     0 15.0 98.36      
20:00 15.7 14.2 91     0 15.0 98.39      
21:00 15.3 14.6 96     0 11.3 98.39      
22:00 14.6 13.9 96   8 4 9.7 98.36      
23:00 14.5 14.0 97   9 4 8.0 98.36      

Notes on Data Quality.

Legend

  • E = Estimated
  • M = Missing
  • NA = Not Available*
  • [empty] = Indicates an unobserved value
Date modified: